Location: Paddlesworth
(51.1000°N, 1.1333°E)
Time: 18:38:20
(UTC+00:00)

Cosmos 1943 Rocket - Pass Details

Date: 11 May 2021
Orbit: 814 x 842 km, 71.0° (Epoch: 21 June)

Event Time Altitude Azimuth Distance (km) Brightness Sun altitude
Exits shadow 22:13:53 29° 144° (SE) 1,481 2.9 -17.5°
Maximum altitude 22:15:39 36° 108° (ESE) 1,288 2.8 -17.6°
Drops below altitude 10° 22:20:44 10° 43° (NE) 2,445 4.9 -17.9°
Sets 22:23:19 0° 35° (NE) 3,378 5.8 -18.1°
